Date,TemperatureHighF,TemperatureAvgF,TemperatureLowF,DewpointHighF,DewpointAvgF,DewpointLowF,HumidityHigh,HumidityAvg,HumidityLow,PressureMaxIn,PressureMinIn,WindSpeedMaxMPH,WindSpeedAvgMPH,GustSpeedMaxMPH,PrecipitationSumIn
2013-2-1,42.5,29.0,16.2,20.1,10.0,-0.1,59,46,27,30.54,30.23,12,2,13,0.00
2013-2-2,58.0,42.9,29.1,31.9,26.0,19.0,71,52,33,30.33,30.22,11,1,12,0.00
2013-2-3,56.5,47.4,37.3,30.4,24.6,18.5,65,42,26,30.35,29.96,13,2,14,0.00
2013-2-4,66.3,54.9,42.2,39.1,32.6,27.1,66,44,26,29.99,29.83,12,2,14,0.00
2013-2-5,67.4,49.1,31.2,42.0,32.7,27.3,89,58,25,30.08,29.93,7,1,10,0.00
2013-2-6,65.0,53.6,42.3,49.1,39.4,31.8,75,59,47,30.09,29.92,17,3,18,0.00
2013-2-7,60.5,51.2,41.2,54.0,46.8,35.9,99,85,71,30.19,29.86,14,3,18,0.02
2013-2-8,49.5,40.6,32.7,36.0,31.8,28.1,90,72,48,30.38,30.19,14,2,19,0.01
2013-2-9,43.5,40.3,37.9,42.4,34.9,30.9,100,81,64,30.21,29.78,17,5,18,0.06
2013-2-10,61.0,51.4,40.2,52.0,34.1,21.1,100,58,23,30.09,29.67,24,5,25,0.23
2013-2-11,52.5,42.0,32.5,25.5,23.3,19.7,69,49,29,30.27,30.09,12,1,17,0.00
2013-2-12,42.2,37.6,32.7,37.9,30.3,23.9,100,77,53,30.17,30.00,10,2,12,0.00
2013-2-13,55.1,42.0,32.9,36.1,32.5,26.6,100,73,35,30.11,29.98,14,2,14,0.02
2013-2-14,59.2,46.6,35.0,34.5,28.9,22.9,64,51,35,30.25,30.01,14,2,16,0.00
2013-2-15,44.6,36.0,28.7,29.6,16.8,7.8,74,48,24,30.46,30.25,14,2,17,0.00
2013-2-16,44.3,34.6,24.8,25.2,14.3,5.3,77,45,24,30.46,30.13,13,2,14,0.00
2013-2-17,68.8,51.4,34.9,33.0,27.4,18.5,67,42,22,30.13,29.78,21,4,25,0.00
2013-2-18,60.9,53.2,36.9,50.0,36.9,22.7,73,55,36,30.19,29.65,29,8,31,0.00
2013-2-19,49.6,38.6,26.7,23.5,20.7,18.1,74,50,29,30.41,30.19,12,2,13,0.00
2013-2-20,36.9,33.7,31.2,33.4,28.1,17.7,100,83,47,30.34,30.06,13,3,16,0.15
2013-2-21,34.9,32.6,26.9,34.9,31.0,18.1,100,94,70,30.06,29.73,17,4,19,0.76
2013-2-22,37.8,28.6,20.6,19.6,16.8,13.8,76,62,45,30.22,30.02,17,3,19,0.02
2013-2-23,45.7,32.2,20.2,23.5,18.9,14.7,80,60,36,30.20,29.99,6,1,7,0.00
2013-2-24,57.8,44.4,31.2,38.6,30.8,22.0,75,60,42,30.02,29.79,19,4,19,0.00
2013-2-25,44.1,38.5,32.5,38.2,34.8,31.5,100,88,64,29.86,29.50,21,6,22,0.57
2013-2-26,40.9,36.0,32.2,33.4,30.8,27.6,100,82,66,29.97,29.53,20,5,24,0.30
2013-2-27,46.7,36.5,31.0,30.2,26.5,22.5,85,68,40,30.21,29.97,24,5,26,0.00
2013-2-28,46.0,36.7,30.3,28.7,26.1,23.6,80,66,50,30.28,30.20,16,4,19,0.00